STARLINK-32224 (60941 NORAD) Tracking and Keplerian Element Data

This shows tracking and keplerian element data for the satellite.

Feedback or suggestion? Click here.




ElementValue
Catalog60941
NameSTARLINK-32224
Epoch Orbit776
Epoch Day286.60100116
Epoch Year2024
RAAN355.1256
Inclination53.1605
Eccentricity0.0001109
Argument of Perigee86.7668
Mean Anonmoly273.3464
Mean Motion15.39660332
Decay Rate4.895E-05
L11 60941U 24155T 24286.60100116 .00004895 00000+0 13211-3 0 9990
L22 60941 53.1605 355.1256 0001109 86.7668 273.3464 15.39660332 7768



Live tracking and technical data element details for STARLINK-32224 (NORAD 60941). STARLINK-32224 can be tracked NOW for your location showing map with azimuth and elevation plus other details from your city location.







IsCatalogInMostPopularTable: catalog: 60941, numindb: 9
Update: records affected: 1



GetName: 60941 STARLINK-32224

Hit Count: updated at: Wed, 04 Dec 2024 19:51:31 GMT